Regional Weather Roundup
Issued by NWS Sioux Falls, SD

Home | Current Version | Previous Version | Text Only | Print | Product List | Glossary On
Versions: 1 2 3 4 5 6 7 8 9 10 11 12 13 14 15 16 17 18 19 20 21 22 23 24 25 26 27 28 29 30 31 32 33 34 35 36 37 38 39 40 41 42 43 44 45 46 47 48 49 50
000
ASUS43 KFSD 122210
RWRFSD

WEATHER ROUNDUP FOR SE SOUTH DAKOTA/SW MINNESOTA/NW IOWA
NATIONAL WEATHER SERVICE SIOUX FALLS SD
400 PM CST FRI FEB 12 2016

NOTE: "FAIR" INDICATES FEW OR NO CLOUDS BELOW 12,000 FEET WITH NO
SIGNIFICANT WEATHER AND OR OBSTRUCTIONS TO VISIBILITY.


SDZ038>040-050-052>070-122300-
SOUTHEAST SOUTH DAKOTA

CITY           SKY/WX    TMP DP  RH WIND       PRES   REMARKS
BROOKINGS      SUNNY      6  -6  57 N13       30.54  WCI -10
CHAMBERLAIN    MOSUNNY   18   8  65 NE8       30.55R WCI   8
HURON          SUNNY     11   0  61 N13       30.61R WCI  -4
MADISON        FAIR       7  -2  66 N18       30.53R WCI -12
MITCHELL       SUNNY     13   3  64 N13       30.60R WCI  -2
SIOUX FALLS    MOSUNNY   10  -1  61 N12       30.56R WCI  -5
WINNER         CLOUDY    23  13  65 E8        30.50R WCI  14
YANKTON        SUNNY     16   1  53 N14       30.59R WCI   1
$$

MNZ071-072-080-081-089-090-097-098-122300-
SOUTHWEST MINNESOTA

CITY           SKY/WX    TMP DP  RH WIND       PRES   REMARKS
FAIRMONT       PTSUNNY    9  -2  61 NW24      30.48R WCI -12
JACKSON        MOSUNNY    9  -2  61 NW21G30   30.50R WCI -11
LUVERNE        SUNNY     10  -4  52 N16       30.55R WCI  -7
MARSHALL       PTSUNNY    5  -3  69 N22       30.57R WCI -16
MONTEVIDEO     PTSUNNY    7   0  72 N16G24    30.60R WCI -11
PIPESTONE      SUNNY      7  -9  47 N12G18    30.51R WCI  -9
REDWOOD FALLS  SUNNY      9  -3  58 NW17G24   30.55R WCI  -9
TRACY          HAZE       7   0  73 N21       30.55R VSB 1/2 WCI -14
WINDOM         PTSUNNY    5   0  78 NW25      30.51R HAZE    WCI -18
WORTHINGTON    SUNNY      5  -4  66 NW20      30.52R WCI -15
$$

IAZ001>003-012>014-020>022-031-032-NEZ013-014-SDZ071-122300-
NORTHWEST IOWA

CITY           SKY/WX    TMP DP  RH WIND       PRES   REMARKS
CHEROKEE       SUNNY     11   0  60 N15G22    30.55R WCI  -5
DENISON        CLOUDY    12   3  67 N15G21    30.52R WCI  -4
ESTHERVILLE    PTSUNNY    6   0  76 NW21G30   30.50R WCI -14
LE MARS        SUNNY     12   3  67 N15G21    30.59R WCI  -4
ORANGE CITY    SUNNY     10   1  67 N14       30.54R WCI  -5
SHELDON        SUNNY      9   0  66 NW18      30.53R WCI -10
SIOUX CITY     SUNNY     18   3  52 N10       30.58R WCI   6
SPENCER        SUNNY      8  -1  66 N23       30.52R WCI -13
STORM LAKE     SUNNY     10   0  61 N23       30.51R WCI -10
$$

ABBREVIATIONS USED IN REMARKS
   TC - TEMPERATURE IN CELSIUS
  WCI - WIND CHILL INDEX
   HX - HEAT INDEX
  VSB - VISIBILITY




USA.gov is the U.S. government's official web portal to all federal, state and local government web resources and services.